Hourly Weather Honcharivka

Today, 17 April, Saturday

Time Temperature Precipitation Wind Pressure Humidity
00:00 +10°C° 0 mm 2 mps 756 mmHg 67%
01:00 +9°C° 0 mm 2 mps 757 mmHg 71%
02:00 +8°C° 0 mm 2 mps 757 mmHg 75%
03:00 +9°C° 0 mm 1 mps 757 mmHg 79%
04:00 +7°C° 0.1 mm 2 mps 757 mmHg 82%
05:00 +7°C° 0.1 mm 2 mps 757 mmHg 85%
06:00 +6°C° 0.1 mm 2 mps 757 mmHg 88%
07:00 +7°C° 0 mm 3 mps 757 mmHg 81%
08:00 +8°C° 0 mm 3 mps 757 mmHg 73%
09:00 +8°C° 0 mm 4 mps 757 mmHg 66%
10:00 +10°C° 0 mm 4 mps 757 mmHg 59%
11:00 +11°C° 0 mm 4 mps 757 mmHg 51%
12:00 +12°C° 0 mm 4 mps 757 mmHg 44%
13:00 +12°C° 0 mm 4 mps 758 mmHg 45%
14:00 +12°C° 0 mm 5 mps 758 mmHg 47%
15:00 +11°C° 0 mm 6 mps 758 mmHg 49%
16:00 +12°C° 0 mm 5 mps 758 mmHg 51%
17:00 +10°C° 0 mm 5 mps 758 mmHg 53%
18:00 +10°C° 0 mm 5 mps 758 mmHg 55%
19:00 +10°C° 0 mm 4 mps 758 mmHg 59%
20:00 +10°C° 0 mm 3 mps 758 mmHg 62%
21:00 +9°C° 0 mm 3 mps 759 mmHg 65%
22:00 +8°C° 0 mm 2 mps 758 mmHg 68%
23:00 +8°C° 0 mm 2 mps 758 mmHg 71%

Tomorrow, 18 April, Sunday

Time Temperature Precipitation Wind Pressure Humidity
00:00 +7°C° 0 mm 2 mps 758 mmHg 74%
01:00 +7°C° 0 mm 2 mps 758 mmHg 75%
02:00 +6°C° 0 mm 2 mps 758 mmHg 76%
03:00 +6°C° 0 mm 2 mps 758 mmHg 77%
04:00 +6°C° 0 mm 2 mps 758 mmHg 76%
05:00 +6°C° 0 mm 2 mps 758 mmHg 76%
06:00 +6°C° 0 mm 2 mps 758 mmHg 75%
07:00 +7°C° 0 mm 2 mps 758 mmHg 69%
08:00 +9°C° 0 mm 2 mps 758 mmHg 62%
09:00 +12°C° 0 mm 2 mps 758 mmHg 56%
10:00 +13°C° 0 mm 2 mps 758 mmHg 51%
11:00 +14°C° 0 mm 2 mps 758 mmHg 46%
12:00 +15°C° 0 mm 2 mps 758 mmHg 42%
13:00 +16°C° 0 mm 2 mps 758 mmHg 40%
14:00 +16°C° 0 mm 2 mps 757 mmHg 38%
15:00 +16°C° 0 mm 1 mps 757 mmHg 37%
16:00 +16°C° 0 mm 2 mps 757 mmHg 39%
17:00 +16°C° 0 mm 2 mps 757 mmHg 42%
18:00 +16°C° 0 mm 3 mps 757 mmHg 45%
19:00 +14°C° 0 mm 3 mps 757 mmHg 48%
20:00 +13°C° 0 mm 3 mps 757 mmHg 51%
21:00 +12°C° 0 mm 3 mps 757 mmHg 54%
22:00 +12°C° 0 mm 3 mps 757 mmHg 56%
23:00 +11°C° 0 mm 3 mps 757 mmHg 58%

Day after tomorrow, 19 April, Monday

Time Temperature Precipitation Wind Pressure Humidity
00:00 +11°C° 0 mm 3 mps 757 mmHg 60%
01:00 +12°C° 0 mm 2 mps 757 mmHg 63%
02:00 +10°C° 0 mm 2 mps 757 mmHg 67%
03:00 +10°C° 0 mm 2 mps 756 mmHg 70%
04:00 +10°C° 0.3 mm 2 mps 756 mmHg 75%
05:00 +9°C° 0.3 mm 2 mps 756 mmHg 79%
06:00 +9°C° 0.3 mm 2 mps 756 mmHg 84%
07:00 +9°C° 0.5 mm 3 mps 756 mmHg 85%
08:00 +9°C° 0.5 mm 3 mps 756 mmHg 86%
09:00 +8°C° 0.5 mm 4 mps 756 mmHg 86%
10:00 +8°C° 0.1 mm 4 mps 756 mmHg 86%
11:00 +8°C° 0.1 mm 5 mps 755 mmHg 85%
12:00 +8°C° 0.1 mm 5 mps 755 mmHg 85%
13:00 +10°C° 0 mm 4 mps 755 mmHg 83%
14:00 +10°C° 0 mm 4 mps 755 mmHg 82%
15:00 +10°C° 0 mm 4 mps 755 mmHg 81%
16:00 +10°C° 0 mm 3 mps 754 mmHg 82%
17:00 +10°C° 0 mm 3 mps 754 mmHg 84%
18:00 +10°C° 0 mm 3 mps 754 mmHg 86%
19:00 +9°C° 0 mm 3 mps 754 mmHg 88%
20:00 +9°C° 0 mm 2 mps 753 mmHg 90%
21:00 +9°C° 0 mm 2 mps 753 mmHg 92%
22:00 +9°C° 0 mm 2 mps 753 mmHg 93%
23:00 +9°C° 0 mm 2 mps 752 mmHg 94%

20 April, Tuesday

Time Temperature Precipitation Wind Pressure Humidity
00:00 +8°C° 0 mm 2 mps 752 mmHg 95%
01:00 +8°C° 0 mm 2 mps 751 mmHg 96%
02:00 +8°C° 0 mm 2 mps 751 mmHg 97%
03:00 +8°C° 0 mm 2 mps 750 mmHg 97%
04:00 +9°C° 0.1 mm 3 mps 750 mmHg 98%
05:00 +9°C° 0.1 mm 3 mps 749 mmHg 98%
06:00 +10°C° 0.1 mm 4 mps 749 mmHg 98%
07:00 +9°C° 1.3 mm 5 mps 747 mmHg 97%
08:00 +10°C° 1.3 mm 7 mps 746 mmHg 97%
09:00 +10°C° 1.3 mm 8 mps 745 mmHg 96%
10:00 +11°C° 0.4 mm 9 mps 744 mmHg 91%
11:00 +13°C° 0.4 mm 10 mps 743 mmHg 87%
12:00 +14°C° 0.4 mm 11 mps 742 mmHg 82%
13:00 +14°C° 0.3 mm 11 mps 741 mmHg 81%
14:00 +15°C° 0.3 mm 12 mps 741 mmHg 79%
15:00 +15°C° 0.3 mm 12 mps 740 mmHg 78%
16:00 +16°C° 0.4 mm 11 mps 741 mmHg 76%
17:00 +14°C° 0.4 mm 10 mps 741 mmHg 74%
18:00 +14°C° 0.4 mm 10 mps 742 mmHg 71%
19:00 +12°C° 0.2 mm 9 mps 742 mmHg 74%
20:00 +11°C° 0.2 mm 9 mps 743 mmHg 77%
21:00 +10°C° 0.2 mm 9 mps 743 mmHg 80%
22:00 +8°C° 0.3 mm 9 mps 743 mmHg 82%
23:00 +8°C° 0.3 mm 10 mps 743 mmHg 84%

21 April, Wednesday

Time Temperature Precipitation Wind Pressure Humidity
00:00 +8°C° 0.3 mm 10 mps 744 mmHg 86%
01:00 +7°C° 0.2 mm 9 mps 744 mmHg 86%
02:00 +7°C° 0.2 mm 9 mps 745 mmHg 85%
03:00 +7°C° 0.2 mm 8 mps 746 mmHg 85%
04:00 +7°C° 0.1 mm 8 mps 747 mmHg 85%
05:00 +8°C° 0.1 mm 7 mps 749 mmHg 85%
06:00 +8°C° 0.1 mm 7 mps 750 mmHg 85%
07:00 +8°C° 0.1 mm 7 mps 750 mmHg 82%
08:00 +9°C° 0.1 mm 7 mps 751 mmHg 78%
09:00 +9°C° 0.1 mm 7 mps 752 mmHg 74%
10:00 +10°C° 0 mm 7 mps 753 mmHg 68%
11:00 +11°C° 0 mm 7 mps 753 mmHg 62%
12:00 +12°C° 0 mm 7 mps 754 mmHg 56%
13:00 +12°C° 0.1 mm 7 mps 754 mmHg 57%
14:00 +13°C° 0.1 mm 6 mps 755 mmHg 59%
15:00 +14°C° 0.1 mm 6 mps 755 mmHg 60%
16:00 +13°C° 0.1 mm 5 mps 755 mmHg 61%
17:00 +13°C° 0.1 mm 4 mps 756 mmHg 62%
18:00 +13°C° 0.1 mm 3 mps 756 mmHg 63%
19:00 +13°C° 0 mm 2 mps 756 mmHg 67%
20:00 +12°C° 0 mm 2 mps 757 mmHg 70%
21:00 +11°C° 0 mm 1 mps 757 mmHg 74%
22:00 +11°C° 0 mm 1 mps 758 mmHg 73%
23:00 +11°C° 0 mm 1 mps 758 mmHg 73%

22 April, Thursday

Time Temperature Precipitation Wind Pressure Humidity
00:00 +11°C° 0 mm 1 mps 758 mmHg 73%
01:00 +11°C° 0 mm 1 mps 758 mmHg 74%
02:00 +10°C° 0 mm 0 mps 758 mmHg 75%
03:00 +10°C° 0 mm 0 mps 758 mmHg 76%
04:00 +9°C° 0 mm 0 mps 759 mmHg 77%
05:00 +9°C° 0 mm 0 mps 759 mmHg 77%
06:00 +9°C° 0 mm 0 mps 759 mmHg 78%
07:00 +11°C° 0.1 mm 1 mps 759 mmHg 74%
08:00 +12°C° 0.1 mm 1 mps 760 mmHg 69%
09:00 +13°C° 0.1 mm 1 mps 760 mmHg 65%
10:00 +14°C° 0.4 mm 1 mps 760 mmHg 61%
11:00 +15°C° 0.4 mm 1 mps 760 mmHg 57%
12:00 +16°C° 0.4 mm 2 mps 760 mmHg 53%
13:00 +17°C° 0.2 mm 2 mps 759 mmHg 49%
14:00 +18°C° 0.2 mm 1 mps 759 mmHg 46%
15:00 +19°C° 0.2 mm 1 mps 759 mmHg 42%
16:00 +19°C° 0 mm 1 mps 759 mmHg 44%
17:00 +18°C° 0 mm 1 mps 759 mmHg 45%
18:00 +18°C° 0 mm 1 mps 759 mmHg 46%
19:00 +16°C° 0.1 mm 1 mps 759 mmHg 50%
20:00 +15°C° 0.1 mm 1 mps 759 mmHg 55%
21:00 +13°C° 0.1 mm 1 mps 760 mmHg 59%
22:00 +13°C° 0 mm 1 mps 760 mmHg 60%
23:00 +12°C° 0 mm 1 mps 760 mmHg 61%
Show more

We Need Your Consent

Meteoprog and our Service Providers may store and access personal data such as cookies, device identifiers or other similar technologies on your device and process such data to personalise content and ads, as well as provide social media features and to analyse the traffic.

  • Store and/or access information on your device

    Cookies, device identifiers or other information can be stored or accessed on your device for the purposes indicated above.

  • Personalised ads and content, ad and content measurement, audience insights, and products development

    Ads and content can be personalised based on a profile. More data can be added to better personalise ads and content. Ad and content performance can be measured. Insights about the audience who saw the ads and content can be derived. Such data can be used to develop or improve user’s experience, systems and software.

By clicking ‘I Agree’ you will allow the use of indicated cookies, device identifiers, web beacons or other similar technologies. Your settings can be changed in the browser on your device.

For certain purposes, legitimate interests may be relied on, rather than consent. You can read more about this in our Privacy and Cookie Policy.